Content
SEND FEEDBACK

Daily
Averages
Monthly
Summary
United Kingdom

CRANBROOK, ENGLAND


Home > Europe > United Kingdom > England
Elevation: 305 feet     Latitude: 51 16N     Longitude: 000 24E

WEATHER
 
SELECT A DAY
Number of Records: 143,500;   Date Range: 7/1/96 - 12/24/14
 
SHARE

PRINT THIS DATA

[ ← Previous Day ]
WEATHER ALMANAC - JULY 20, 2014
[ Next Day → ]
[ °C ]   °F
Weather ElementAverageHighLow
Temperature68.5 °F73.4 °F (3:20 pm)62.6 °F (5:50 pm)
Dewpoint59.6 °F60.8 °F (10:20 am)57.2 °F (4:20 pm)
Humidity74 %88 % (5:50 pm)57 % (4:20 pm)
Barometer29.86 in29.89 in (5:20 pm)29.83 in (9:20 am)
Wind Speed6.5 mph10.4 mph (11:20 am)
Weather ElementAverage
Visibility6 mi
Wind DirectionWSW (237.6 °)

Weather ElementTotal
Precipitation---
Cooling Degree Days3 (Base 65)
Growing Degree Days18 (Base 50)
Averaged from 21 records on July 20, 2014
WEATHER CONDITIONS BREAKOUT
WIND DIRECTION BREAKOUT
WEATHER BY HOUR - JULY 20, 2014
[ °C ]   °F
Local TimeTemperatureDewpointHumidityBarometerVisibilityWind DirectionWind SpeedGust SpeedPrecipitationEventsConditions
9:20 AM66.2 °F59.0 °F78 %29.83 in6.2 miWest (270°)4.6 mphScattered Clouds
9:50 AM66.2 °F59.0 °F78 %29.83 in5.6 miWest (270°)6.9 mphScattered Clouds
10:20 AM66.2 °F60.8 °F83 %29.83 in5.6 miWest (270°)8.1 mphPartly Cloudy
10:50 AM68.0 °F60.8 °F78 %29.83 in6.2 miWest (280°)6.9 mphPartly Cloudy
11:20 AM68.0 °F60.8 °F78 %29.83 in6.2 miNW (310°)10.4 mphScattered Clouds
11:50 AM68.0 °F60.8 °F78 %29.83 in6.2 miWNW (290°)8.1 mphScattered Clouds
12:20 PM69.8 °F60.8 °F73 %29.83 in6.2 miNW (310°)6.9 mphScattered Clouds
12:50 PM69.8 °F60.8 °F73 %29.83 in6.2 miWNW (290°)6.9 mphScattered Clouds
1:20 PM71.6 °F60.8 °F69 %29.83 in6.2 miWNW (290°)10.4 mphScattered Clouds
1:50 PM71.6 °F60.8 °F69 %29.86 in6.2 miWNW (300°)6.9 mphScattered Clouds
2:20 PM71.6 °F59.0 °F64 %29.86 in6.2 miWest (270°)8.1 mphScattered Clouds
2:50 PM71.6 °F59.0 °F64 %29.86 in6.2 miWNW (290°)6.9 mphScattered Clouds
3:20 PM73.4 °F59.0 °F61 %29.86 in6.2 miWest (270°)5.8 mphScattered Clouds
4:20 PM73.4 °F57.2 °F57 %29.86 in6.2 miWNW (300°)3.5 mphPartly Cloudy
4:50 PM73.4 °F57.2 °F57 %29.86 in6.2 miCalmPartly Cloudy
5:20 PM68.0 °F57.2 °F68 %29.89 in6.2 miENE (70°)10.4 mphThunderstormScattered Clouds
5:50 PM62.6 °F59.0 °F88 %29.89 in3.7 miEast (100°)9.2 mphRain-ThunderstormRain Showers
6:20 PM62.6 °F59.0 °F88 %29.89 in6.2 miSE (130°)3.5 mphThunderstormPartly Cloudy
6:50 PM64.4 °F60.8 °F88 %29.89 in6.2 miSW (220°)5.8 mphRainLight Rain Showers
7:20 PM66.2 °F60.8 °F83 %29.89 in6.2 miSW (220°)3.5 mphPartly Cloudy
7:50 PM66.2 °F59.0 °F78 %29.89 in6.2 miWSW (240°)4.6 mphPartly Cloudy
Hourly data recorded from EGKB, located miles away from Cranbrook, England







STORIES FROM OUR PARTNERS